Probability
0 0 0 0 0 0 0 0 0 0 0 0 0 0 0 0 0 0 0 0 0 0 0 0 0 0 0 0 0 0 0 0 0 1 1 1 0 0 0 0 0 0 0 0 0 0 0 0 0
0 0 0 0 0 0 0 0 0 0 0 0 0 0 0 0 0 0 0 0 0 0 0 0 0 0 0 0 0 0 0 0 0 0 0 0 0 0 0 0 0 0 0 0 0 0 0 0 0
0 0 0 0 0 0 0 0 0 0 0 0 0 0 0 0 0 0 0 0 0 0 0 0 0 0 0 0 0 0 0 0 0 0 0 0 0 0 0 0 0 0 0 0 0 0 0 0 0
0 0 0 0 0 0 0 0 0 0 0 0 0 0 0 0 0 0 0 0 0 0 0 0 0 0 0 0 0 0 0 0 0 0 0 0 0 0 0 0 0 0 0 0 0 0 0 0 0
0 0 0 0 0 0 0 0 0 0 0 0 0 0 0 0 0 0 0 0 0 0 0 0 0 0 0 0 0 0 0 0 0 0 0 0 0 0 0 0 0 0 0 0 0 0 0 0 0
0 0 0 0 0 0 0 0 0 0 0 0 0 0 0 0 0 0 0 0 0 0 0 0 0 0 0 0 0 0 0 0 0 0 0 0 0 0 0 0 0 0 0 0 0 0 0 0 0
0 0 0 0 0 0 0 0 0 0 0 0 0 0 0 0 0 0 0 0 0 0 0 0 0 0 0 0 0 0 0 0 0 0 0 0 0 0 0 0 0 0 0 0 0 0 0 0 0
0 0 0 0 0 0 0 0 0 0 0 0 0 0 0 0 0 0 0 0 0 0 0 0 0 0 0 0 0 0 0 0 0 0 0 0 0 0 0 0 0 0 0 0 0 0 0 0 0
0 0 0 0 0 0 0 0 0 0 0 0 0 0 0 0 0 0 0 0 0 0 0 0 0 0 0 0 0 0 0 0 0 0 0 0 0 0 0 0 0 0 0 0 0 0 0 0 0
0 0 0 0 0 0 0 0 0 0 0 0 0 0 0 0 0 0 0 0 0 0 0 0 0 0 0 0 0 0 0 0 0 0 0 0 0 0 0 0 0 0 0 0 0 0 0 0 0
0 0 0 0 0 0 0 0 0 0 0 0 0 0 0 0 0 0 0 0 0 0 0 0 0 0 0 0 0 0 0 0 0 0 0 0 0 0 0 0 0 0 0 0 0 0 0 0 0
0 0 0 0 0 0 0 0 0 0 0 0 0 0 0 0 0 0 0 0 0 0 0 0 0 0 0 0 0 0 0 0 0 0 0 0 0 0 0 0 0 0 0 0 0 0 0 0 0
0 0 0 0 0 0 0 0 0 0 0 0 0 0 0 0 0 0 0 0 0 0 0 0 0 0 0 0 0 0 0 0 0 0 0 0 0 0 0 0 0 0 0 0 0 0 0 0 0
0 0 0 0 0 0 0 0 0 0 0 0 0 0 0 0 0 0 0 0 0 0 0 0 0 0 0 0 0 0 0 0 0 0 0 0 0 0 0 0 0 0 0 0 0 0 0 0 0
0 0 0 0 0 0 0 0 0 0 0 0 0 0 0 0 0 0 0 0 0 0 0 0 0 0 0 0 0 0 0 0 0 0 0 0 0 0 0 0 0 0 0 0 0 0 0 0 0
0 0 0 0 0 0 0 0 0 0 0 0 0 0 0 0 0 0 0 0 0 0 0 0 0 0 0 0 0 0 0 0 0 0 0 0 0 0 0 0 0 0 0 0 0 0 0 0 0
0 0 0 0 0 0 0 0 0 0 0 0 0 0 0 0 0 0 0 0 0 0 0 0 0 0 0 0 0 0 0 0 0 0 0 0 0 0 0 0 0 0 0 0 0 0 0 0 0
0 0 0 0 0 0 0 0 0 0 0 0 0 0 0 0 0 0 0 0 0 0 0 0 0 0 0 0 0 0 0 0 0 0 0 0 0 0 0 0 0 0 0 0 0 0 0 0 0
0 0 0 0 0 0 0 0 0 0 0 0 0 0 0 0 0 0 0 0 0 0 0 0 0 0 0 0 0 0 0 0 0 0 0 0 0 0 0 0 0 0 0 0 0 0 0 0 0
0 0 0 0 0 0 0 0 0 0 0 0 0 0 0 0 0 0 0 0 0 0 0 0 0 0 0 0 0 0 0 0 0 0 0 0 0 0 0 0 0 0 0 0 0 0 0 0 0
0 0 0 0 0 0 0 0 0 0 0 0 0 0 0 0 0 0 0 0 0 0 0 0 0 0 0 0 0 0 0 0 0 0 0 0 0 0 0 0 0 0 0 0 0 0 0 0 0
0 0 0 0 0 0 0 0 0 0 0 0 0 0 0 0 0 0 0 0 0 0 0 0 0 0 0 0 0 0 0 0 0 0 0 0 0 0 0 0 0 0 0 0 0 0 0 0 0
0 0 0 0 0 0 0 0 0 0 0 0 0 0 0 0 0 0 0 0 0 0 0 0 0 0 0 0 0 0 0 0 0 0 0 0 0 0 0 0 0 0 0 0 0 0 0 0 0
0 0 0 0 0 0 0 0 0 0 0 0 0 0 0 0 0 0 0 0 0 0 0 0 0 0 0 0 0 0 0 0 0 0 0 0 0 0 0 0 0 0 0 0 0 0 0 0 0
0 0 0 0 0 0 0 0 0 0 0 0 0 0 0 0 0 0 0 0 0 0 0 0 0 0 0 0 0 0 0 0 0 0 0 0 0 0 0 0 0 0 0 0 0 0 0 0 0
0 0 0 0 0 0 0 0 0 0 0 0 0 0 0 0 0 0 0 0 0 0 0 0 0 0 0 0 0 0 0 0 0 0 0 0 0 0 0 0 0 0 0 0 0 0 0 0 0
0 0 0 0 0 0 0 0 0 0 0 0 0 0 0 0 0 0 0 0 0 0 0 0 0 0 0 0 0 0 0 0 0 0 0 0 0 0 0 0 0 0 0 0 0 0 0 0 0
0 0 0 0 0 0 0 0 0 0 0 0 0 0 0 0 0 0 0 0 0 0 0 0 0 0 0 0 0 0 0 0 0 0 0 0 0 0 0 0 0 0 0 0 0 0 0 0 0
0 0 0 0 0 0 0 0 0 0 0 0 0 0 0 0 0 0 0 0 0 0 0 0 0 0 0 0 0 0 0 0 0 0 0 0 0 0 0 0 0 0 0 0 0 0 0 0 0
0 0 0 0 0 0 0 0 0 0 0 0 0 0 0 0 0 0 0 0 0 0 0 0 0 0 0 0 0 0 0 0 0 0 0 0 0 0 0 0 0 0 0 0 0 0 0 0 0
Wind_Speed
9 5 2 4 5 3 2 3 1 1 1 0 1 2 4 4 3 2 1 1 2 3 3 5 7 9 9 9 9 9 9 9 9 9 10 10 10 10 10 10 10 10 10 11 11 12 12 12 12
3 3 4 5 4 2 4 3 2 2 1 2 3 3 3 2 1 1 0 0 3 4 3 3 7 8 9 9 9 8 8 8 8 8 9 9 10 10 10 10 9 10 10 10 11 12 12 12 12
2 4 4 4 3 5 3 2 2 1 1 1 2 2 1 1 0 1 1 1 3 4 3 4 8 8 8 8 8 8 8 8 8 8 8 9 9 9 9 9 9 9 10 10 11 11 11 11 11
3 4 5 3 3 4 3 1 1 1 1 2 2 2 1 1 0 1 1 4 5 4 3 4 8 8 8 8 8 8 8 7 7 7 8 8 9 9 8 9 9 8 9 10 10 11 11 11 11
4 4 3 1 4 3 2 1 2 1 1 1 2 2 0 1 2 3 4 4 5 4 3 3 7 8 7 7 7 7 7 7 7 7 8 8 8 8 8 8 8 8 8 9 10 10 10 10 11
4 3 2 4 4 3 2 1 2 1 0 1 2 2 1 1 2 2 4 4 4 4 3 3 5 6 6 6 6 6 6 6 7 6 7 7 7 7 7 7 8 8 8 8 9 9 9 10 10
4 3 3 3 3 3 2 1 2 2 1 2 2 3 1 0 1 3 4 4 4 4 3 3 3 4 5 6 5 5 5 6 6 6 6 6 6 7 7 7 8 7 7 8 8 8 9 9 9
4 4 2 2 3 4 2 1 1 3 2 0 2 4 3 2 3 4 4 4 4 3 3 3 3 3 3 3 4 5 5 5 5 6 6 5 5 6 7 6 7 7 7 7 8 8 8 9 9
3 3 4 4 5 3 1 2 1 0 2 0 0 1 0 5 6 5 4 3 2 2 1 2 2 3 3 3 3 4 4 4 4 4 5 5 3 3 4 5 6 7 7 7 7 7 8 8 8
3 3 5 2 3 2 1 1 2 1 0 1 1 1 2 5 6 6 5 5 4 3 2 1 2 2 3 2 2 2 2 3 2 2 2 2 3 2 4 5 6 6 6 6 7 7 8 6 4
2 4 2 1 1 1 1 1 1 3 3 5 5 3 4 5 5 5 5 5 5 4 3 2 2 2 3 2 2 1 1 2 2 2 2 2 3 2 3 2 3 3 4 4 4 5 3 3 3
1 1 1 1 1 1 1 1 1 4 6 3 3 4 6 7 7 7 6 5 4 3 4 3 3 3 2 3 2 2 1 1 1 1 2 2 2 2 2 2 2 2 2 2 2 2 3 3 3
1 1 1 1 1 1 1 2 3 5 5 2 1 4 6 7 6 5 4 3 3 4 4 4 3 4 3 3 2 2 2 2 1 1 1 2 2 2 2 1 1 2 2 2 2 2 2 3 3
1 1 2 2 1 1 1 4 2 7 2 1 2 4 5 5 5 4 3 4 4 5 4 4 4 4 4 3 2 2 2 2 2 1 1 2 3 2 2 2 1 1 1 2 2 2 2 2 2
1 1 3 2 1 1 1 6 7 6 1 2 3 4 4 4 3 5 6 6 5 5 4 4 4 4 4 4 3 2 2 2 2 2 2 2 3 3 2 2 1 1 1 2 2 2 2 2 2
2 1 3 3 0 0 1 9 6 2 2 4 4 3 3 4 4 5 5 4 4 4 4 5 4 4 4 3 3 2 2 2 2 2 2 3 3 3 3 2 2 1 2 2 2 2 2 2 1
2 1 4 4 1 0 2 8 6 1 2 4 5 4 4 4 4 5 4 4 4 5 5 5 5 5 5 4 3 2 2 2 2 2 2 2 3 3 3 2 2 2 2 2 2 2 2 1 1
3 3 3 4 2 0 4 9 10 4 3 6 5 5 4 5 7 5 4 4 4 4 5 5 5 5 4 3 2 1 1 2 2 2 2 2 3 3 3 2 2 3 3 2 2 2 2 1 1
2 2 4 4 2 2 6 11 12 7 5 7 7 6 6 8 7 3 3 3 3 3 4 5 5 5 4 3 3 3 3 2 2 2 2 3 3 4 4 3 3 3 3 3 3 2 2 2 1
2 3 4 4 1 2 6 11 10 7 7 7 7 8 7 6 5 3 3 3 4 5 5 6 6 6 5 4 3 2 2 2 2 2 2 3 3 4 4 4 3 3 3 3 3 3 2 1 1
4 5 5 4 4 2 4 10 6 4 3 5 6 6 6 6 6 5 4 4 4 5 6 6 6 6 5 4 3 2 1 1 1 1 2 2 3 3 4 4 4 4 4 4 4 4 4 3 1
5 4 4 2 1 4 1 7 8 4 6 6 6 5 6 5 5 4 4 4 5 6 5 5 5 6 5 5 5 5 4 3 3 2 2 2 3 3 3 4 4 4 3 4 4 4 3 4 3
4 1 2 1 2 3 1 4 11 2 6 7 5 4 5 4 4 4 4 5 5 4 4 4 5 5 5 5 6 5 4 3 2 2 2 3 3 3 3 4 4 4 3 3 4 4 3 3 3
2 3 2 2 2 4 5 5 10 5 7 5 4 4 4 3 3 3 3 2 2 2 2 3 4 4 4 5 5 6 5 4 3 2 3 2 2 2 3 3 3 4 3 3 3 3 4 3 3
2 4 2 4 2 7 3 5 12 8 5 5 6 5 4 3 2 2 2 2 2 2 2 3 3 3 4 5 5 6 6 5 5 5 4 3 2 2 3 4 3 3 3 3 3 3 3 3 3
4 5 6 5 5 5 2 8 10 5 4 3 4 3 3 3 2 2 3 2 2 3 3 3 4 3 3 4 5 5 5 4 4 4 3 4 3 3 3 4 3 3 3 3 3 3 3 3 3
4 4 3 3 0 3 6 7 10 3 3 2 2 2 3 3 3 2 2 2 2 3 3 4 4 3 4 4 4 4 4 4 4 4 3 3 2 2 3 3 3 3 3 4 4 3 3 3 3
2 4 4 4 2 5 6 6 6 5 4 2 2 2 3 3 3 2 2 2 2 2 2 2 3 4 4 4 4 3 4 4 4 3 4 3 3 2 3 3 3 3 3 3 4 3 3 3 3
4 3 3 3 3 4 5 8 6 6 4 3 3 3 3 2 2 2 2 2 1 1 1 2 2 2 3 3 3 3 3 3 3 3 4 4 3 3 3 3 3 3 3 4 4 4 4 4 4
4 5 6 4 5 4 4 10 3 4 3 3 4 3 2 2 2 2 2 1 1 1 1 1 2 2 3 3 3 3 3 3 3 3 3 3 4 3 4 3 3 3 3 4 5 5 5 5 5
Wind_Direction
341 346 39 53 59 57 231 246 218 191 190 74 64 111 132 136 154 175 23 118 119 132 143 143 134 129 125 123 121 119 117 115 111 108 105 103 101 98 94 91 88 86 85 83 83 81 78 77 75
336 358 48 60 100 181 252 239 218 224 175 93 58 66 87 90 41 85 54 243 128 127 124 126 125 124 125 124 122 119 116 115 114 112 110 106 103 100 97 94 90 89 87 86 85 82 79 77 76
355 41 74 80 143 191 220 213 206 296 63 93 80 53 92 119 89 194 254 156 117 113 110 128 125 122 125 126 123 120 116 115 116 117 116 110 106 102 100 98 94 92 91 88 86 83 79 77 76
59 48 58 92 202 216 219 244 167 118 41 55 112 85 36 36 292 236 125 124 112 104 99 127 129 127 124 127 128 121 116 111 110 117 119 116 110 106 102 99 96 95 93 90 87 84 81 79 77
56 78 81 193 229 240 248 268 153 148 162 64 122 131 193 13 33 80 103 115 120 112 97 113 128 128 126 123 126 125 121 115 106 109 117 113 109 107 105 101 99 97 92 90 88 85 83 80 77
65 77 133 214 234 258 269 229 142 136 137 82 125 136 214 39 75 95 103 106 111 115 99 95 121 121 123 124 121 122 124 120 111 103 109 110 107 105 103 101 99 96 95 93 91 87 85 81 77
118 118 183 204 225 250 252 173 169 173 187 220 170 149 228 249 117 111 102 101 97 99 94 81 86 106 117 118 118 114 116 119 117 108 100 102 103 101 99 97 96 95 96 97 94 90 85 82 78
124 121 180 212 209 242 232 160 199 178 206 109 146 169 218 209 132 108 97 96 96 91 91 90 80 81 86 98 105 102 104 110 112 106 98 96 97 96 96 92 95 96 95 96 93 90 83 79 75
94 107 208 211 196 228 185 159 308 65 118 63 311 242 259 128 125 116 107 105 108 103 88 99 100 97 95 95 95 95 95 99 103 100 102 98 84 84 90 88 90 91 90 91 90 88 82 73 68
101 178 222 214 191 190 208 181 204 124 166 252 291 356 90 127 144 152 162 170 178 185 186 150 136 126 114 104 94 86 75 73 73 81 87 94 90 87 87 89 87 88 86 86 86 83 75 65 55
142 196 220 246 240 187 234 256 215 166 228 225 220 200 155 158 166 179 188 188 193 192 190 181 171 149 135 129 120 106 93 84 76 84 94 99 90 82 74 75 67 67 71 68 70 65 57 58 59
149 256 239 274 270 203 240 241 240 209 228 245 216 174 170 180 191 196 201 204 193 191 202 192 174 165 158 143 139 134 130 125 115 94 111 116 111 99 97 87 78 71 71 80 73 75 67 63 57
205 268 310 302 317 232 274 249 242 252 256 283 149 159 182 195 202 206 208 205 197 205 208 200 183 178 170 154 157 148 160 157 152 136 138 133 135 135 118 102 90 86 86 96 93 86 80 71 60
209 232 285 307 300 328 270 271 253 261 236 229 193 208 212 208 205 203 207 214 212 213 214 203 191 186 173 169 173 175 168 163 153 154 159 151 143 141 133 125 114 103 106 107 106 101 89 73 64
70 18 327 298 262 280 324 290 243 257 192 230 231 230 232 237 223 217 214 215 218 214 208 204 198 185 180 178 179 177 174 164 168 173 164 160 150 149 147 144 140 141 120 109 103 92 82 77 62
45 20 300 295 292 278 148 268 275 263 186 236 243 244 250 254 246 239 232 221 216 205 202 204 196 185 185 181 181 180 173 170 181 176 173 168 162 158 154 153 156 142 123 119 121 110 93 78 67
28 269 262 296 308 356 188 259 283 315 208 249 257 254 255 266 272 256 242 225 213 206 199 195 193 184 184 181 174 176 169 177 186 182 181 179 166 162 161 161 161 145 135 136 136 108 108 101 73
221 230 250 263 298 275 250 264 282 286 248 256 260 259 259 259 260 254 239 226 216 207 197 192 191 185 180 172 156 159 170 188 182 186 194 187 176 168 166 163 160 151 146 146 139 123 96 99 97
177 211 254 259 278 268 261 271 279 283 269 261 258 255 257 259 264 261 236 220 205 201 193 192 190 189 178 175 180 187 205 205 197 198 200 195 185 176 173 171 167 164 164 164 154 135 119 94 87
218 250 269 287 300 246 283 279 273 259 251 250 252 252 252 260 274 265 240 214 206 206 201 194 194 188 186 188 185 180 181 198 197 194 197 198 192 184 182 175 179 176 170 165 162 148 138 135 129
228 220 236 265 326 319 317 296 270 269 256 262 254 252 254 246 250 253 243 224 214 210 205 201 199 193 188 175 156 131 122 98 171 201 207 206 196 188 186 180 179 183 178 182 185 176 164 166 166
247 220 211 234 295 295 356 294 284 266 283 266 259 258 258 257 252 254 245 235 223 218 208 202 194 191 187 173 167 169 183 197 203 199 202 201 191 188 188 177 180 185 186 187 191 186 184 165 176
217 142 166 198 204 288 243 248 281 292 275 269 264 261 263 259 246 248 241 234 229 214 202 198 190 189 181 174 176 181 193 200 179 163 176 192 194 192 188 182 179 183 186 190 185 183 188 186 181
156 82 72 62 84 273 221 206 274 243 234 264 275 272 272 274 261 256 257 250 236 210 192 186 180 184 177 178 181 188 192 183 163 175 185 193 196 192 191 189 187 189 185 186 188 185 189 194 185
113 100 22 345 331 252 207 215 252 251 241 239 261 272 279 284 281 277 271 241 224 206 190 179 171 183 181 181 188 194 196 189 188 191 193 191 194 203 207 200 195 193 192 188 181 180 184 190 187
190 159 168 211 239 277 235 235 254 258 266 255 256 271 302 299 291 280 263 242 223 209 196 185 182 187 184 188 197 195 194 195 198 194 191 197 201 205 199 201 197 195 191 188 183 186 190 186 193
161 199 179 138 49 287 265 274 294 278 298 292 299 313 299 292 290 284 283 266 241 218 206 196 190 190 190 192 195 198 198 196 196 189 189 199 203 189 181 188 193 195 192 193 185 193 196 190 196
175 152 125 150 202 263 279 260 250 257 258 284 309 299 293 303 306 308 299 274 259 236 221 199 194 197 195 190 196 201 205 204 196 184 190 195 193 179 170 180 192 195 193 191 189 195 191 190 200
157 167 167 160 180 194 263 266 226 217 226 245 260 262 263 274 292 303 306 289 273 274 204 202 204 196 193 194 198 197 201 201 195 195 197 193 186 179 178 182 190 196 198 197 198 207 196 196 201
190 188 166 181 228 214 238 266 259 214 239 246 263 266 267 274 290 306 313 319 306 275 257 226 221 214 212 199 192 199 198 189 195 202 200 188 185 186 185 180 187 199 204 204 203 210 204 202 205